This is the latest recevied weather packets stored in our database for station/object N1TKS. If no packets are shown the sender has not sent any weather packets the latest 10 day(s).
| Time | Temp. | Humidity | Pressure | Rain* | Wind** | Luminosity | Snow |
|---|---|---|---|---|---|---|---|
| 1777837014 | 13.89° C | 35% | 1010.4 hPa | 0 mm | - | - | - |
| 1777836716 | 13.89° C | 36% | 1010.5 hPa | 0 mm | - | - | - |
| 1777836598 | 13.89° C | 37% | 1010.6 hPa | 0 mm | - | - | - |
| 1777836528 | 13.33° C | 37% | 1010.8 hPa | 0 mm | - | - | - |
| 1777836416 | 13.89° C | 37% | 1010.6 hPa | 0 mm | - | - | - |
| 1777835815 | 13.33° C | 37% | 1010.8 hPa | 0 mm | - | - | - |
| 1777834915 | 13.33° C | 37% | 1010.8 hPa | 0 mm | - | - | - |
| 1777834607 | 12.78° C | 40% | 1011.1 hPa | 0 mm | - | - | - |
| 1777834315 | 12.78° C | 38% | 1010.9 hPa | 0 mm | - | - | - |
| 1777834013 | 12.78° C | 40% | 1011.1 hPa | 0 mm | - | - | - |
| 1777833651 | 12.78° C | 39% | 1011.1 hPa | 0 mm | - | - | - |
| 1777833644 | 12.78° C | 39% | 1011.2 hPa | 0 mm | - | - | - |
| 1777833414 | 12.78° C | 39% | 1011.1 hPa | 0 mm | - | - | - |
| 1777833113 | 12.78° C | 39% | 1011.2 hPa | 0 mm | - | - | - |
| 1777833053 | 12.78° C | 40% | 1011.2 hPa | 0 mm | - | - | - |
| 1777833043 | 12.78° C | 39% | 1011.3 hPa | 0 mm | - | - | - |
| 1777832814 | 12.78° C | 40% | 1011.2 hPa | 0 mm | - | - | - |
| 1777832517 | 12.78° C | 39% | 1011.3 hPa | 0 mm | - | - | - |
| 1777831917 | 12.22° C | 40% | 1011.1 hPa | 0 mm | - | - | - |
| 1777831650 | 12.22° C | 39% | 1011.1 hPa | 0 mm | - | - | - |
| 1777831614 | 12.22° C | 39% | 1011.1 hPa | 0 mm | - | - | - |
| 1777831316 | 12.22° C | 40% | 1011.2 hPa | 0 mm | - | - | - |
| 1777831013 | 12.22° C | 39% | 1011.3 hPa | 0 mm | - | - | - |
| 1777830714 | 12.22° C | 40% | 1011.1 hPa | 0 mm | - | - | - |
| 1777830114 | 12.22° C | 39% | 1011.3 hPa | 0 mm | - | - | - |
* Rain latest hour (hover to see other rain measurements)
** Current wind speed in m/s (hover to see current wind gust speed)